Location: Kopernik Observatory
(42.0014°N, 76.0372°W)
Time: 09:43:58
(UTC-04:00)

Daily predictions for brighter satellites

Satellite Brightness Start Highest point End
(mag) Time Altitude Azimuth Time Altitude Azimuth Time Altitude Azimuth
Meteor 2-4 Rocket 3.9 20:05:54 10° N 20:11:47 86° E 20:17:44 10° S
Cosmos 2278 4.0 20:07:20 10° S 20:12:43 47° ESE 20:18:09 10° NE
BREEZE-M DEB (TANK) 4.4 20:16:07 10° NW 20:18:51 32° NNE 20:25:16 10° E
Cosmos 1821 Rocket 3.9 20:13:03 10° S 20:19:08 79° E 20:25:14 10° N
Cosmos 1975 4.0 20:15:53 10° SE 20:19:11 24° E 20:22:29 10° NE
Cosmos 1605 Rocket 4.3 20:16:10 10° SSE 20:22:13 48° E 20:28:12 10° NNE
Okean 2 3.4 20:18:43 10° N 20:22:55 75° E 20:27:03 10° SSE
Cosmos 1777 Rocket 4.3 20:20:56 10° NNW 20:26:11 71° WSW 20:31:25 10° S
Cosmos 2369 3.8 20:20:53 10° S 20:26:23 54° ESE 20:31:56 10° NNE
Lacrosse 5 rocket 1.5 20:22:50 10° NW 20:26:29 46° NE 20:29:46 11° ESE
Cosmos 1633 4.0 20:23:28 10° SSW 20:26:59 43° WNW 20:30:28 10° N
NOSS 7 (D) 4.3 20:24:19 10° SSW 20:27:46 63° ESE 20:31:06 10° NE
H-2A R/B 2.8 20:24:28 10° SSE 20:28:16 61° ENE 20:32:10 10° N
Cosmos 1315 Rocket 4.5 20:24:43 10° SSW 20:28:29 40° WNW 20:32:20 10° N
Cosmos 1980 Rocket 3.7 20:28:11 10° SE 20:31:01 14° E 20:33:51 10° ENE
Meteor 1-12 Rocket 4.5 20:30:47 10° SSE 20:36:15 49° E 20:41:52 10° NNE
NOSS 3-4 (A) 4.0 20:29:36 10° NW 20:36:39 81° WSW 20:44:06 10° SSE
NOSS 3-4 (C) 4.0 20:29:44 10° NW 20:36:47 82° WSW 20:44:14 10° SSE
CZ-4 DEB 3.8 20:38:27 14° SE 20:40:32 28° ENE 20:43:17 10° N
Cosmos 2208 Rocket 4.2 20:39:59 10° SSW 20:45:18 82° WNW 20:50:44 10° NNE
CZ-2D R/B 3.5 20:43:02 10° S 20:46:53 71° W 20:50:47 10° NNW
H-2A R/B 3.4 20:46:30 15° E 20:48:22 21° ENE 20:51:27 10° NNE
Cosmos 1461 2.9 20:44:40 10° NW 20:48:44 75° WSW 20:52:18 12° SSE
OAO 2 Rocket 4.1 20:46:30 10° SW 20:51:00 34° S 20:54:03 18° ESE
Cosmos 2123 Rocket 4.1 20:44:49 10° N 20:51:01 83° W 20:57:12 10° S
Cosmos 1626 Rocket 3.6 20:46:57 10° N 20:51:20 61° E 20:55:39 10° SSE
Cosmos 2298 Rocket 4.4 20:46:55 10° N 20:52:03 47° ENE 20:55:58 17° SE
Cosmos 1939 Rocket 3.7 20:50:49 17° SE 20:53:26 35° ENE 20:57:15 10° N
FENGYUN 3A 4.1 20:50:26 10° S 20:55:43 64° WSW 21:01:03 10° NNW
Cosmos 1455 Rocket 3.6 20:51:45 10° SSW 20:56:01 61° W 21:00:20 10° N
Cosmos 2227 Rocket 2.4 20:52:42 10° NNW 20:58:22 74° WSW 21:03:59 10° SSE
Cosmos 1602 Rocket 3.5 20:55:43 10° N 21:00:12 78° E 21:04:37 10° SSE
Cosmos 1656 3.7 20:55:00 10° S 21:00:29 58° ESE 21:05:57 10° NNE
Envisat 3.4 20:57:13 17° SE 21:00:45 43° ENE 21:05:34 10° N
Cosmos 1937 Rocket 4.1 20:58:34 10° N 21:03:31 39° ENE 21:06:20 22° ESE
Cosmos 1346 Rocket 4.0 20:59:59 10° NNW 21:03:43 42° W 21:07:29 10° SSW
Cosmos 1459 Rocket 4.3 20:59:29 10° SSE 21:05:05 41° E 21:10:45 10° NNE
Cosmos 1500 3.3 21:02:27 12° SSE 21:05:47 50° E 21:09:27 10° NNE
Iridium 4 Rocket 3.3 21:04:22 10° N 21:09:31 81° E 21:14:10 10° S
ALOS 3.6 21:06:22 10° SSW 21:10:43 39° W 21:15:07 10° NNW
Cosmos 2082 4.2 21:07:03 10° NNW 21:12:35 60° WSW 21:18:05 10° S
Cosmos 2084 3.5 21:08:55 10° NNW 21:12:57 62° NE 21:14:49 31° ESE
Cosmos 2297 Rocket 2.3 21:08:12 10° NNW 21:13:52 77° WSW 21:18:32 15° SSE
Cosmos 220 Rocket 4.1 21:13:49 10° NNW 21:18:02 72° WSW 21:20:50 20° S
Cosmos 1340 3.7 21:14:51 10° NNE 21:18:11 28° ENE 21:18:25 28° E
Cosmos 2150 Rocket 3.9 21:13:27 10° NNW 21:18:36 69° ENE 21:21:30 26° SSE
RESURS DK-1 2.9 21:16:15 10° NNW 21:20:14 43° ENE 21:21:23 34° ESE
Cosmos 1153 Rocket 4.5 21:14:08 10° S 21:20:20 87° W 21:26:32 10° N
CZ-3C R/B 4.3 20:45:01 10° WSW 21:21:08 28° SW 21:28:20 14° SSE
Cosmos 2058 Rocket 4.4 21:26:13 23° ENE 21:26:13 23° ENE 21:29:09 10° NE
USA 186 4.1 21:23:07 10° SSW 21:25:42 22° W 21:28:09 10° NW
YAOGAN 6 3.6 21:26:58 30° ENE 21:26:58 30° ENE 21:30:11 10° N
Cosmos 1515 4.0 21:24:37 10° NNW 21:28:27 65° W 21:30:46 22° S
DELTA 2 R/B (1) 3.9 21:23:25 10° W 21:28:49 53° SSW 21:31:02 33° SE
BREEZE-M DEB (TANK) 3.9 21:13:21 10° SW 21:29:17 72° SSE 21:32:42 21° ENE
ERS-1 Rocket 3.1 21:27:56 18° S 21:31:45 74° WSW 21:36:47 10° NNW
Cosmos 1606 Rocket 3.8 21:34:01 43° ESE 21:34:30 45° E 21:38:44 10° NNE
Cosmos 1802 Rocket 4.0 21:29:34 15° S 21:34:47 62° E 21:41:08 10° NNE
MetOp-A 4.3 21:34:10 35° SE 21:36:08 54° ENE 21:41:21 10° N
Cosmos 1898 Rocket 3.7 21:35:23 10° NNW 21:40:41 72° WSW 21:43:26 28° S
Cosmos 1743 2.6 21:40:00 53° SSE 21:40:49 75° E 21:44:44 10° NNE
OTV 4 3.0 21:40:12 10° WSW 21:41:08 14° SW 21:41:08 14° SW
Cosmos 1763 Rocket 3.5 21:43:24 44° SE 21:44:21 50° ESE 21:49:15 10° NNE
Lacrosse 5 1.8 21:41:43 10° NW 21:46:49 82° NE 21:48:07 51° ESE
Cosmos 1066 Rocket 4.5 21:41:15 10° NNW 21:46:52 68° W 21:50:49 21° S
Tiangong 1 1.8 21:45:30 10° W 21:47:55 51° W 21:47:55 51° W
Cosmos 2016 Rocket 3.9 21:47:11 28° S 21:50:29 68° E 21:56:38 10° NNE
Cosmos 1697 Rocket 2.8 21:46:01 10° SSW 21:51:41 74° WNW 21:57:20 10° NNE
SPOT 5 2.8 21:50:57 46° SSE 21:52:30 84° ENE 21:57:22 10° NNW
SL-16 R/B 3.8 22:00:58 19° ENE 22:00:58 19° ENE 22:03:02 10° NE
Cosmos 1726 Rocket 3.4 21:58:23 71° E 21:58:23 71° E 22:02:44 10° NNE
SL-08 RB Rocket 4.3 22:01:28 42° ENE 22:01:28 42° ENE 22:05:37 10° N
NOAA 11 4.3 22:00:38 51° ESE 22:01:29 56° ENE 22:06:50 10° N
Cosmos 2173 Rocket 4.2 21:56:48 10° SSW 22:03:08 71° W 22:09:29 10° N
USA 215 3.9 22:00:24 30° E 22:03:18 47° NNE 22:09:30 10° NW
Cosmos 1842 3.9 22:01:23 10° N 22:04:21 45° NNE 22:04:21 45° NNE
Lacrosse 5 rocket 3.2 22:02:50 10° W 22:05:22 18° WSW 22:05:31 18° SW
Cosmos 841 Rocket 3.3 22:05:13 62° SSE 22:05:54 70° ESE 22:11:07 10° NNE
Cosmos 1825 Rocket 4.1 22:07:20 10° NNW 22:11:40 53° W 22:12:29 45° SW
ARGOS 3.0 22:12:12 64° ESE 22:12:43 69° ENE 22:18:06 10° N
Cosmos 1980 Rocket 2.2 22:08:34 10° SSW 22:14:14 80° WNW 22:19:58 10° NNE
Cosmos 1864 Rocket 4.3 22:17:11 59° SSE 22:18:19 74° E 22:24:26 10° N
Cosmos 967 Rocket 4.4 22:12:20 10° NNW 22:18:43 87° WSW 22:19:56 61° SSE
Cosmos 1953 Rocket 4.0 22:16:54 10° NNW 22:21:17 58° W 22:21:30 57° WSW
Tsikada Rocket 3.9 22:15:53 10° N 22:22:21 79° E 22:23:28 62° SSE
USA 245 4.4 22:21:02 55° S 22:22:33 84° WSW 22:28:57 10° NNW
H-2A R/B 3.3 22:23:39 32° WSW 22:24:10 33° W 22:27:56 10° NNW
Meteor 1-15 Rocket 4.2 22:24:50 71° SSE 22:25:24 78° E 22:31:18 10° NNE
Terra 2.9 22:28:05 33° NE 22:28:05 33° NE 22:31:22 10° N
Cosmos 1666 4.2 22:31:54 33° NNW 22:31:54 33° NNW 22:34:12 10° N
Milstar 3 Cent rocket 4.4 22:15:15 10° W 22:31:37 39° SSW 22:34:14 35° S
ASTEX 1 4.3 22:33:12 10° N 22:37:59 45° WNW 22:39:19 36° WSW
Cosmos 2228 4.3 22:41:51 37° N 22:41:51 37° N 22:44:30 10° N
Cosmos 2263 Rocket 2.9 22:37:09 10° NNW 22:41:51 40° NE 22:41:51 40° NE
Cosmos 2322 Rocket 2.8 22:48:05 45° NE 22:48:05 45° NE 22:51:55 10° NNE
Cosmos 1816 Rocket 4.4 22:40:00 10° N 22:46:25 87° W 22:46:49 80° SSW
H-2A R/B 2.5 22:48:51 54° N 22:48:51 54° N 22:52:41 10° N
Cosmos 1725 Rocket 4.3 22:47:52 48° SW 22:49:26 63° W 22:55:38 10° N
CZ-4B R/B 4.2 22:58:02 10° N 23:02:02 46° NW 23:02:02 46° NW
Meteor 2-17 Rocket 4.5 23:04:12 74° WNW 23:04:12 74° WNW 23:10:05 10° N
Cosmos 2233 Rocket 4.2 23:15:54 63° WNW 23:15:54 63° WNW 23:22:01 10° N
Lacrosse 5 4.3 23:26:03 10° W 23:27:19 14° W 23:27:19 14° W
SL-16 R/B 3.3 23:42:47 41° NW 23:42:47 41° NW 23:47:34 10° NNE
USA 215 3.8 23:47:44 48° W 23:47:44 48° W 23:52:39 10° NW
